Location: Rodanthe
(35.5920°N, 75.4670°W)
Time: 13:36:54
(UTC-04:00)

ISS - All Passes

Search period start: 22 May 2015 00:00
Search period end: 01 June 2015 00:00
Orbit: 399 x 404 km, 51.6° (Epoch: 22 May)

Date Brightness Start Highest point End Pass type
(mag) Time Alt. Az. Time Alt. Az. Time Alt. Az.
22 May - 00:25:48 10° SSE 00:27:36 14° SE 00:29:32 10° E night (unlit)
22 May - 02:00:41 10° WSW 02:03:47 42° NW 02:06:55 10° NE visible
22 May - 08:30:29 10° NW 08:33:41 52° NE 08:36:53 10° ESE daylight
22 May - 10:08:28 10° WSW 10:09:48 12° SW 10:11:00 10° SSW daylight
23 May - 01:07:21 10° SW 01:10:35 87° SE 01:13:51 10° NE visible
23 May - 02:45:48 10° NW 02:47:26 13° NNW 02:49:00 10° N visible
23 May - 07:37:33 10° NNW 07:40:24 27° NNE 07:43:15 10° E daylight
23 May - 09:14:01 10° WNW 09:16:46 25° SW 09:19:29 10° S daylight
24 May - 00:14:26 10° SSW 00:17:27 37° SE 00:20:30 10° ENE night (unlit)
24 May - 01:51:26 10° W 01:53:58 20° NNW 01:56:29 10° NNE visible
24 May - 06:44:50 10° NNW 06:46:59 16° NNE 06:49:11 10° ENE daylight
24 May - 08:20:26 10° WNW 08:23:39 56° SW 08:26:51 10° SE daylight
24 May - 23:22:09 10° S 23:24:20 17° SE 23:26:37 10° E night (unlit)
25 May - 00:57:32 10° WSW 01:00:35 36° NW 01:03:37 10° NNE visible
25 May - 05:52:38 10° N 05:53:27 11° NNE 05:54:20 10° NE daylight
25 May - 07:27:11 10° NW 07:30:26 64° NE 07:33:40 10° ESE daylight
26 May - 00:04:02 10° SW 00:07:15 77° NW 00:10:31 10° NE night (unlit)
26 May - 01:42:54 10° NW 01:44:11 12° NNW 01:45:24 10° N visible
26 May - 06:34:08 10° NNW 06:37:05 31° NE 06:40:03 10° E daylight
26 May - 08:10:50 10° W 08:13:23 21° SW 08:15:52 10° S daylight
26 May - 23:10:55 10° SSW 23:14:01 45° SE 23:17:09 10° ENE night (unlit)
27 May - 00:48:16 10° WNW 00:50:37 18° NNW 00:52:56 10° NNE visible
27 May - 05:41:16 10° NNW 05:43:37 18° NNE 05:46:00 10° ENE daylight
27 May - 07:17:03 10° WNW 07:20:12 45° SW 07:23:19 10° SSE daylight
27 May - 22:18:21 10° S 22:20:50 21° SE 22:23:22 10° E night (unlit)
27 May - 23:54:11 10° W 23:57:07 31° NW 00:00:03 10° NNE visible
28 May - 04:48:45 10° N 04:50:01 12° NNE 04:51:21 10° NE visible
28 May - 06:23:39 10° NW 06:26:55 78° NE 06:30:10 10° SE daylight
28 May - 23:00:29 10° WSW 23:03:42 63° NW 23:06:56 10° NE night (unlit)
29 May - 00:39:53 10° NW 00:40:41 11° NNW 00:41:25 10° N visible
29 May - 05:30:28 10° NNW 05:33:31 36° NE 05:36:35 10° ESE daylight
29 May - 07:07:29 10° W 07:09:45 17° SW 07:11:57 10° S daylight
29 May - 22:07:12 10° SW 22:10:21 56° SE 22:13:33 10° ENE night (unlit)
29 May - 23:44:52 10° WNW 23:47:01 16° NNW 23:49:08 10° NNE visible
30 May - 04:37:28 10° NNW 04:39:59 20° NNE 04:42:32 10° E visible
30 May - 06:13:27 10° WNW 06:16:30 37° SW 06:19:32 10° SSE daylight
30 May - 21:14:24 10° S 21:17:04 24° SE 21:19:48 10° ENE visible
30 May - 22:50:36 10° W 22:53:25 27° NW 22:56:14 10° NNE visible
31 May - 03:44:46 10° N 03:46:20 13° NNE 03:47:59 10° NE visible
31 May - 05:19:54 10° NW 05:23:10 87° SW 05:26:25 10° SE visible
31 May - 20:22:42 10° SSE 20:23:48 12° SE 20:25:03 10° ESE daylight
31 May - 21:56:44 10° WSW 21:59:54 52° NW 22:03:05 10° NE visible
